Location: Nachod
(50.4170°N, 16.1670°E)
Time: 10:17:45
(UTC+02:00)

ISS - Pass Details

Date: 30 March 2019
Orbit: 408 x 410 km, 51.6° (Epoch: 21 April)

Event Time Altitude Azimuth Distance (km) Brightness Sun altitude
Rises 19:14:20 0° 271° (W) 2,336 1.8 -8.7°
Reaches altitude 10° 19:16:26 10° 274° (W) 1,475 0.5 -9.0°
Maximum altitude 19:19:44 69° 358° (N) 443 -3.6 -9.5°
Enters shadow 19:22:40 13° 82° (E) 1,330 -1.8 -10.0°
